| time (UTC) | temp C | wind direction | speed KPH | gust KPH | rain 1hr cm | rain 24hr cm | rain mn cm | humidity % | barometer mb |
| 20260504100511 | 13 | 194 | 6.4 | 8.0 | 0.00 | 0.00 | 0.00 | 79 | 1011.1 |
| 20260504081904 | 13 | 200 | 6.4 | 8.0 | 0.00 | 0.00 | 0.00 | 82 | 1011.3 |
| 20260504081401 | 13 | 184 | 6.4 | 8.0 | 0.00 | 0.00 | 0.00 | 82 | 1011.4 |
| 20260504080856 | 13 | 201 | 8.0 | 8.0 | 0.00 | 0.00 | 0.00 | 81 | 1011.2 |
| 20260504080354 | 13 | 193 | 6.4 | 8.0 | 0.00 | 0.00 | 0.00 | 81 | 1011.3 |
| 20260504070321 | 14 | 185 | 8.0 | 9.7 | 0.00 | 0.00 | 0.00 | 77 | 1011.7 |
| 20260504060241 | 15 | 176 | 9.7 | 9.7 | 0.00 | 0.00 | 0.00 | 72 | 1012.4 |
| 20260504050709 | 15 | 180 | 8.0 | 9.7 | 0.00 | 0.00 | 0.00 | 71 | 1012.6 |
| 20260504050206 | 15 | 191 | 8.0 | 9.7 | 0.00 | 0.00 | 0.00 | 72 | 1012.7 |
| 20260504045703 | 15 | 211 | 4.8 | 8.0 | 0.00 | 0.00 | 0.00 | 72 | 1012.7 |
| 20260504045157 | 15 | 197 | 6.4 | 8.0 | 0.00 | 0.00 | 0.00 | 72 | 1012.7 |
| 20260504044656 | 15 | 205 | 4.8 | 4.8 | 0.00 | 0.00 | 0.00 | 73 | 1012.8 |
| 20260504044152 | 15 | 190 | 4.8 | 4.8 | 0.00 | 0.00 | 0.00 | 72 | 1013.0 |
| 20260504043649 | 15 | 194 | 3.2 | 3.2 | 0.00 | 0.00 | 0.00 | 74 | 1013.0 |
| 20260504043146 | 15 | 186 | 6.4 | 8.0 | 0.00 | 0.00 | 0.00 | 75 | 1013.0 |
| 20260504042644 | 15 | 189 | 4.8 | 4.8 | 0.00 | 0.00 | 0.00 | 74 | 1012.9 |
| 20260504042140 | 15 | 186 | 4.8 | 4.8 | 0.00 | 0.00 | 0.00 | 74 | 1013.1 |
| 20260504041636 | 14 | 208 | 4.8 | 4.8 | 0.00 | 0.00 | 0.00 | 76 | 1013.1 |
| 20260504041133 | 13 | 209 | 4.8 | 4.8 | 0.00 | 0.00 | 0.00 | 79 | 1013.1 |
| 20260504040630 | 13 | 194 | 4.8 | 4.8 | 0.00 | 0.00 | 0.00 | 81 | 1013.3 |
| 20260504040127 | 13 | 205 | 3.2 | 3.2 | 0.00 | 0.00 | 0.00 | 80 | 1013.1 |
| 20260504035623 | 13 | 217 | 3.2 | 3.2 | 0.00 | 0.00 | 0.00 | 80 | 1013.1 |
| 20260504035120 | 13 | 221 | 3.2 | 3.2 | 0.00 | 0.00 | 0.00 | 81 | 1013.1 |
| 20260504034618 | 13 | 216 | 1.6 | 1.6 | 0.00 | 0.00 | 0.00 | 81 | 1013.3 |
| 20260504034114 | 13 | 217 | 1.6 | 1.6 | 0.00 | 0.00 | 0.00 | 80 | 1013.5 |
| 20260504033612 | 13 | 219 | 1.6 | 1.6 | 0.00 | 0.00 | 0.00 | 80 | 1013.5 |
| 20260504033109 | 14 | 206 | 3.2 | 3.2 | 0.00 | 0.00 | 0.00 | 79 | 1013.7 |
| 20260504032606 | 14 | 211 | 3.2 | 3.2 | 0.00 | 0.00 | 0.00 | 77 | 1013.5 |
| 20260504032103 | 15 | 220 | 3.2 | 3.2 | 0.00 | 0.00 | 0.00 | 75 | 1013.7 |
| 20260504031600 | 15 | 201 | 4.8 | 4.8 | 0.00 | 0.00 | 0.00 | 74 | 1013.7 |
| 20260504031056 | 15 | 212 | 3.2 | 3.2 | 0.00 | 0.00 | 0.00 | 72 | 1013.7 |
| 20260504030553 | 16 | 196 | 3.2 | 3.2 | 0.00 | 0.00 | 0.00 | 71 | 1013.6 |
| 20260504030050 | 16 | 216 | 3.2 | 3.2 | 0.00 | 0.00 | 0.00 | 70 | 1013.6 |
| 20260504025547 | 16 | 188 | 4.8 | 4.8 | 0.00 | 0.00 | 0.00 | 68 | 1013.8 |
| 20260504025044 | 17 | 193 | 4.8 | 4.8 | 0.00 | 0.00 | 0.00 | 66 | 1013.6 |
| 20260504024541 | 17 | 193 | 4.8 | 4.8 | 0.00 | 0.00 | 0.00 | 65 | 1013.7 |
| 20260504024038 | 17 | 209 | 4.8 | 4.8 | 0.00 | 0.00 | 0.00 | 63 | 1013.4 |
| 20260504023534 | 17 | 211 | 4.8 | 4.8 | 0.00 | 0.00 | 0.00 | 63 | 1013.4 |
| 20260504023030 | 18 | 182 | 4.8 | 4.8 | 0.00 | 0.00 | 0.00 | 62 | 1013.4 |
| 20260504022526 | 18 | 188 | 4.8 | 4.8 | 0.00 | 0.00 | 0.00 | 61 | 1013.3 |
| 20260504022023 | 18 | 189 | 4.8 | 8.0 | 0.00 | 0.00 | 0.00 | 61 | 1013.1 |
| 20260504021520 | 18 | 189 | 6.4 | 8.0 | 0.00 | 0.00 | 0.00 | 61 | 1013.1 |
| 20260504021017 | 18 | 209 | 4.8 | 4.8 | 0.00 | 0.00 | 0.00 | 61 | 1013.1 |
| 20260504020514 | 18 | 204 | 6.4 | 8.0 | 0.00 | 0.00 | 0.00 | 60 | 1013.2 |
| 20260504020011 | 18 | 207 | 6.4 | 8.0 | 0.00 | 0.00 | 0.00 | 61 | 1013.0 |
| 20260504015507 | 18 | 204 | 4.8 | 4.8 | 0.00 | 0.00 | 0.00 | 59 | 1013.2 |
| 20260504015003 | 18 | 202 | 6.4 | 8.0 | 0.00 | 0.00 | 0.00 | 60 | 1013.2 |
| 20260504014459 | 18 | 196 | 4.8 | 4.8 | 0.00 | 0.00 | 0.00 | 61 | 1013.0 |
| 20260504013956 | 18 | 189 | 4.8 | 4.8 | 0.00 | 0.00 | 0.00 | 59 | 1013.0 |
| 20260504013455 | 18 | 201 | 4.8 | 4.8 | 0.00 | 0.00 | 0.00 | 61 | 1013.1 |
| 20260504012950 | 19 | 195 | 4.8 | 4.8 | 0.00 | 0.00 | 0.00 | 59 | 1013.2 |
| 20260504012449 | 19 | 184 | 4.8 | 4.8 | 0.00 | 0.00 | 0.00 | 57 | 1013.0 |
| 20260504011946 | 20 | 173 | 6.4 | 8.0 | 0.00 | 0.00 | 0.00 | 56 | 1012.8 |
| 20260504011442 | 20 | 183 | 4.8 | 4.8 | 0.00 | 0.00 | 0.00 | 55 | 1012.9 |
| 20260504010938 | 20 | 187 | 4.8 | 4.8 | 0.00 | 0.00 | 0.00 | 56 | 1012.9 |
| 20260504010434 | 20 | 185 | 4.8 | 4.8 | 0.00 | 0.00 | 0.00 | 57 | 1012.7 |
| 20260504005930 | 20 | 193 | 4.8 | 4.8 | 0.00 | 0.00 | 0.00 | 55 | 1012.9 |
| 20260504005427 | 20 | 162 | 4.8 | 4.8 | 0.00 | 0.00 | 0.00 | 55 | 1012.8 |
| 20260504004925 | 20 | 187 | 4.8 | 4.8 | 0.00 | 0.00 | 0.00 | 55 | 1012.8 |
| 20260504004422 | 20 | 189 | 4.8 | 4.8 | 0.00 | 0.00 | 0.00 | 54 | 1012.6 |
| 20260504003919 | 21 | 193 | 4.8 | 4.8 | 0.00 | 0.00 | 0.00 | 53 | 1012.7 |
| 20260504003415 | 21 | 187 | 6.4 | 8.0 | 0.00 | 0.00 | 0.00 | 51 | 1012.8 |
| 20260504002912 | 21 | 180 | 4.8 | 4.8 | 0.00 | 0.00 | 0.00 | 50 | 1012.7 |
| 20260504002409 | 21 | 192 | 4.8 | 4.8 | 0.00 | 0.00 | 0.00 | 49 | 1012.7 |
| 20260504001907 | 22 | 166 | 4.8 | 4.8 | 0.00 | 0.00 | 0.00 | 48 | 1012.5 |
| 20260504001404 | 22 | 188 | 4.8 | 4.8 | 0.00 | 0.00 | 0.00 | 47 | 1012.7 |
| 20260504000901 | 22 | 191 | 4.8 | 4.8 | 0.00 | 0.00 | 0.00 | 45 | 1012.7 |
| 20260504000358 | 22 | 168 | 6.4 | 8.0 | 0.00 | 0.00 | 0.00 | 45 | 1012.5 |
| 20260503235855 | 22 | 167 | 8.0 | 9.7 | 0.00 | 0.00 | 0.00 | 45 | 1012.7 |
| 20260503235353 | 23 | 166 | 9.7 | 12.9 | 0.00 | 0.00 | 0.00 | 44 | 1012.7 |
| 20260503234850 | 23 | 168 | 8.0 | 9.7 | 0.00 | 0.00 | 0.00 | 45 | 1012.6 |
| 20260503234348 | 23 | 156 | 8.0 | 9.7 | 0.00 | 0.00 | 0.00 | 44 | 1012.7 |
| 20260503233845 | 23 | 158 | 8.0 | 8.0 | 0.00 | 0.00 | 0.00 | 43 | 1012.7 |
| 20260503233341 | 23 | 168 | 8.0 | 9.7 | 0.00 | 0.00 | 0.00 | 42 | 1012.9 |
| 20260503232838 | 23 | 161 | 11.3 | 11.3 | 0.00 | 0.00 | 0.00 | 43 | 1013.0 |
| 20260503232335 | 23 | 196 | 12.9 | 14.5 | 0.00 | 0.00 | 0.00 | 42 | 1012.9 |
| 20260503231833 | 23 | 136 | 11.3 | 12.9 | 0.00 | 0.00 | 0.00 | 42 | 1012.8 |
| 20260503231330 | 24 | 138 | 6.4 | 9.7 | 0.00 | 0.00 | 0.00 | 41 | 1012.9 |
| 20260503230826 | 24 | 134 | 17.7 | 24.1 | 0.00 | 0.00 | 0.00 | 41 | 1013.0 |
| 20260503230323 | 24 | 170 | 12.9 | 14.5 | 0.00 | 0.00 | 0.00 | 42 | 1012.9 |
| 20260503225821 | 24 | 153 | 14.5 | 16.1 | 0.00 | 0.00 | 0.00 | 40 | 1013.1 |
| 20260503225316 | 24 | 152 | 19.3 | 25.7 | 0.00 | 0.00 | 0.00 | 41 | 1012.9 |
| 20260503224813 | 23 | 162 | 14.5 | 16.1 | 0.00 | 0.00 | 0.00 | 41 | 1013.2 |
| 20260503224310 | 24 | 170 | 11.3 | 12.9 | 0.00 | 0.00 | 0.00 | 42 | 1013.2 |
| 20260503223808 | 24 | 161 | 8.0 | 11.3 | 0.00 | 0.00 | 0.00 | 43 | 1013.0 |
| 20260503223305 | 23 | 165 | 12.9 | 14.5 | 0.00 | 0.00 | 0.00 | 42 | 1013.1 |
| 20260503222801 | 23 | 202 | 16.1 | 17.7 | 0.00 | 0.00 | 0.00 | 42 | 1013.3 |
| 20260503222300 | 23 | 149 | 16.1 | 20.9 | 0.00 | 0.00 | 0.00 | 42 | 1013.5 |
| 20260503221757 | 23 | 152 | 20.9 | 24.1 | 0.00 | 0.00 | 0.00 | 42 | 1013.6 |
| 20260503221255 | 23 | 205 | 24.1 | 27.4 | 0.00 | 0.00 | 0.00 | 41 | 1013.6 |
| 20260503220751 | 23 | 169 | 14.5 | 16.1 | 0.00 | 0.00 | 0.00 | 42 | 1013.6 |
| 20260503220248 | 23 | 133 | 17.7 | 20.9 | 0.00 | 0.00 | 0.00 | 42 | 1013.7 |
| 20260503215745 | 23 | 171 | 16.1 | 17.7 | 0.00 | 0.00 | 0.00 | 42 | 1013.6 |
| 20260503215242 | 23 | 142 | 11.3 | 16.1 | 0.00 | 0.00 | 0.00 | 43 | 1013.7 |
| 20260503214740 | 23 | 222 | 20.9 | 24.1 | 0.00 | 0.00 | 0.00 | 41 | 1013.7 |
| 20260503214237 | 23 | 113 | 11.3 | 14.5 | 0.00 | 0.00 | 0.00 | 42 | 1013.9 |
| 20260503213735 | 23 | 171 | 17.7 | 24.1 | 0.00 | 0.00 | 0.00 | 42 | 1014.0 |
| 20260503213232 | 23 | 146 | 17.7 | 22.5 | 0.00 | 0.00 | 0.00 | 42 | 1014.1 |
| 20260503212728 | 23 | 178 | 19.3 | 22.5 | 0.00 | 0.00 | 0.00 | 43 | 1014.0 |
| 20260503212226 | 23 | 138 | 17.7 | 17.7 | 0.00 | 0.00 | 0.00 | 42 | 1014.3 |
| 20260503211724 | 23 | 191 | 22.5 | 29.0 | 0.00 | 0.00 | 0.00 | 42 | 1014.1 |
| 20260503211219 | 23 | 178 | 24.1 | 25.7 | 0.00 | 0.00 | 0.00 | 42 | 1014.4 |
| 20260503210715 | 23 | 154 | 27.4 | 29.0 | 0.00 | 0.00 | 0.00 | 42 | 1014.4 |
| 20260503210213 | 23 | 163 | 20.9 | 25.7 | 0.00 | 0.00 | 0.00 | 42 | 1014.6 |
| 20260503205708 | 23 | 198 | 17.7 | 25.7 | 0.00 | 0.00 | 0.00 | 41 | 1014.7 |
| 20260503205204 | 23 | 145 | 20.9 | 32.2 | 0.00 | 0.00 | 0.00 | 41 | 1014.7 |
| 20260503204701 | 23 | 180 | 19.3 | 22.5 | 0.00 | 0.00 | 0.00 | 42 | 1014.9 |
| 20260503204159 | 23 | 152 | 17.7 | 22.5 | 0.00 | 0.00 | 0.00 | 43 | 1014.7 |
| 20260503203655 | 23 | 215 | 14.5 | 20.9 | 0.00 | 0.00 | 0.00 | 42 | 1015.2 |
| 20260503203154 | 22 | 156 | 16.1 | 22.5 | 0.00 | 0.00 | 0.00 | 42 | 1015.0 |
| 20260503202650 | 22 | 148 | 20.9 | 25.7 | 0.00 | 0.00 | 0.00 | 41 | 1015.3 |
| 20260503202148 | 22 | 156 | 17.7 | 17.7 | 0.00 | 0.00 | 0.00 | 42 | 1015.1 |
| 20260503201646 | 23 | 147 | 24.1 | 29.0 | 0.00 | 0.00 | 0.00 | 41 | 1015.3 |
| 20260503201143 | 22 | 118 | 17.7 | 20.9 | 0.00 | 0.00 | 0.00 | 43 | 1015.5 |
| 20260503200639 | 22 | 152 | 17.7 | 17.7 | 0.00 | 0.00 | 0.00 | 41 | 1015.7 |
| 20260503200136 | 22 | 201 | 11.3 | 12.9 | 0.00 | 0.00 | 0.00 | 42 | 1015.6 |
| 20260503195633 | 22 | 159 | 16.1 | 20.9 | 0.00 | 0.00 | 0.00 | 41 | 1016.0 |
| 20260503195130 | 22 | 176 | 14.5 | 16.1 | 0.00 | 0.00 | 0.00 | 42 | 1015.9 |
| 20260503194627 | 22 | 189 | 20.9 | 24.1 | 0.00 | 0.00 | 0.00 | 40 | 1016.1 |
| 20260503194122 | 22 | 135 | 19.3 | 24.1 | 0.00 | 0.00 | 0.00 | 42 | 1016.1 |
| 20260503193620 | 22 | 160 | 16.1 | 20.9 | 0.00 | 0.00 | 0.00 | 42 | 1016.1 |
| 20260503193114 | 22 | 163 | 19.3 | 24.1 | 0.00 | 0.00 | 0.00 | 40 | 1016.2 |
| 20260503192610 | 22 | 226 | 14.5 | 20.9 | 0.00 | 0.00 | 0.00 | 41 | 1016.4 |
| 20260503192106 | 22 | 183 | 11.3 | 12.9 | 0.00 | 0.00 | 0.00 | 42 | 1016.4 |
| 20260503191603 | 22 | 139 | 14.5 | 16.1 | 0.00 | 0.00 | 0.00 | 45 | 1016.3 |
| 20260503191059 | 21 | 182 | 17.7 | 24.1 | 0.00 | 0.00 | 0.00 | 43 | 1016.7 |
| 20260503190556 | 21 | 121 | 20.9 | 29.0 | 0.00 | 0.00 | 0.00 | 40 | 1016.7 |
| 20260503190053 | 22 | 180 | 19.3 | 22.5 | 0.00 | 0.00 | 0.00 | 40 | 1016.7 |
| 20260503185545 | 21 | 169 | 17.7 | 22.5 | 0.00 | 0.00 | 0.00 | 41 | 1016.9 |
| 20260503185044 | 21 | 119 | 9.7 | 11.3 | 0.00 | 0.00 | 0.00 | 41 | 1016.8 |
| 20260503184541 | 21 | 194 | 16.1 | 25.7 | 0.00 | 0.00 | 0.00 | 42 | 1017.0 |
| 20260503184038 | 21 | 201 | 19.3 | 22.5 | 0.00 | 0.00 | 0.00 | 41 | 1017.4 |
| 20260503183534 | 20 | 123 | 14.5 | 20.9 | 0.00 | 0.00 | 0.00 | 42 | 1017.4 |
| 20260503183031 | 21 | 156 | 17.7 | 20.9 | 0.00 | 0.00 | 0.00 | 42 | 1017.4 |
| 20260503182530 | 21 | 115 | 6.4 | 11.3 | 0.00 | 0.00 | 0.00 | 42 | 1017.3 |
| 20260503182027 | 20 | 155 | 9.7 | 12.9 | 0.00 | 0.00 | 0.00 | 41 | 1017.7 |
| 20260503181524 | 21 | 192 | 9.7 | 14.5 | 0.00 | 0.00 | 0.00 | 45 | 1017.6 |
| 20260503181020 | 20 | 165 | 16.1 | 20.9 | 0.00 | 0.00 | 0.00 | 44 | 1018.0 |
| 20260503180518 | 20 | 147 | 19.3 | 22.5 | 0.00 | 0.00 | 0.00 | 44 | 1018.0 |
| 20260503180015 | 20 | 140 | 19.3 | 24.1 | 0.00 | 0.00 | 0.00 | 44 | 1018.0 |
| 20260503175512 | 19 | 115 | 12.9 | 17.7 | 0.00 | 0.00 | 0.00 | 42 | 1018.3 |
| 20260503175009 | 19 | 103 | 12.9 | 16.1 | 0.00 | 0.00 | 0.00 | 44 | 1018.2 |
| 20260503174507 | 18 | 154 | 11.3 | 12.9 | 0.00 | 0.00 | 0.00 | 47 | 1018.5 |
| 20260503174003 | 19 | 133 | 12.9 | 16.1 | 0.00 | 0.00 | 0.00 | 44 | 1018.3 |
| 20260503173457 | 18 | 154 | 14.5 | 17.7 | 0.00 | 0.00 | 0.00 | 45 | 1018.5 |
| 20260503172954 | 18 | 118 | 8.0 | 11.3 | 0.00 | 0.00 | 0.00 | 43 | 1018.7 |
| 20260503172452 | 18 | 202 | 19.3 | 22.5 | 0.00 | 0.00 | 0.00 | 45 | 1018.8 |
| 20260503171949 | 18 | 198 | 11.3 | 14.5 | 0.00 | 0.00 | 0.00 | 46 | 1018.9 |
| 20260503171445 | 18 | 142 | 19.3 | 20.9 | 0.00 | 0.00 | 0.00 | 45 | 1018.7 |
| 20260503170943 | 18 | 189 | 14.5 | 17.7 | 0.00 | 0.00 | 0.00 | 45 | 1018.9 |
| 20260503170439 | 18 | 146 | 6.4 | 9.7 | 0.00 | 0.00 | 0.00 | 45 | 1018.9 |
| 20260503150831 | 14 | 261 | 11.3 | 14.5 | 0.00 | 0.00 | 0.00 | 58 | 1020.1 |
| 20260503150327 | 13 | 161 | 20.9 | 24.1 | 0.00 | 0.00 | 0.00 | 57 | 1019.9 |
| 20260503140252 | 11 | 186 | 11.3 | 14.5 | 0.00 | 0.00 | 0.00 | 68 | 1020.6 |
| 20260503131221 | 10 | 175 | 8.0 | 9.7 | 0.00 | 0.00 | 0.00 | 72 | 1020.6 |
| 20260503130719 | 9 | 162 | 8.0 | 14.5 | 0.00 | 0.00 | 0.00 | 71 | 1020.7 |
| 20260503130216 | 9 | 153 | 9.7 | 11.3 | 0.00 | 0.00 | 0.00 | 74 | 1020.8 |
| 20260503120142 | 7 | 199 | 6.4 | 8.0 | 0.00 | 0.00 | 0.00 | 80 | 1020.5 |
| 20260503110609 | 7 | 188 | 3.2 | 3.2 | 0.00 | 0.00 | 0.00 | 78 | 1019.8 |
| 20260503110107 | 7 | 169 | 6.4 | 8.0 | 0.00 | 0.00 | 0.00 | 78 | 1019.7 |